Weather History for Mattoon, IL

Change the Weather History Date:

Wednesday, November 14, 2012

  Actual Average Record
Temperature  
Mean Temperature 36 °F 44 °F  
Max Temperature 43 °F 53 °F 76 °F (1971)
Min Temperature 28 °F 36 °F 10 °F (1986)
Degree Days  
Heating Degree Days 29 21  
Month to date heating degree days 305 256  
Since 1 July heating degree days 782 660  
Cooling Degree Days 0 0  
Month to date cooling degree days 0 0  
Year to date cooling degree days 1382 1057  
Moisture  
Dew Point 25 °F    
Average Humidity 71    
Maximum Humidity 92    
Minimum Humidity 49    
Precipitation  
Precipitation 0.00 in 0.13 in 2.89 in (1993)
Month to date precipitation 1.19 1.63  
Year to date precipitation 30.56 33.43  
Sea Level Pressure  
Sea Level Pressure 30.46 in    
Wind  
Wind Speed 2 mph (ESE)    
Max Wind Speed 10 mph    
Max Gust Speed 15 mph    
Visibility 10 miles    
Events      
T = Trace of Precipitation, MM = Missing Value Source: NWS Daily Summary

Daily Weather History Graph

Daily Weather History Graph

Search for Another Location

Airport:

Trip Planner

Search our weather history database for the weather conditions in past years. The results will help you decide how hot, cold, wet, or windy it might be!

Date:

Astronomy

Nov. 14, 2012 Rise Set
Actual Time 6:36 AM CST 4:38 PM CST
Civil Twilight 6:07 AM CST 5:07 PM CST
Nautical Twilight 5:35 AM CST 5:39 PM CST
Astronomical Twilight 5:03 AM CST 6:11 PM CST
Moon 7:25 AM CST (11/14) 5:27 PM CST (11/14)
Length of Visible Light 10h 59m
Length of Day
10h 01m
New Moon, 1% of the Moon is Illuminated
Nov 14
New Moon
Nov 20
First Quarter
Nov 28
Full
Dec 6
Last Quarter
Dec 13
New

Hourly Weather History & Observations

Time (CST) Temp. Windchill Dew Point Humidity Pressure Visibility Wind Dir Wind Speed Gust Speed Precip Events Conditions
12:53 AM 30.9 °F 27.5 °F 25.0 °F 79% 30.50 in 10.0 mi ESE 3.5 mph - N/A   Clear
1:53 AM 32.0 °F 28.7 °F 24.1 °F 73% 30.50 in 10.0 mi SE 3.5 mph - N/A   Clear
2:53 AM 33.1 °F - 21.0 °F 61% 30.51 in 10.0 mi Calm Calm - N/A   Clear
3:53 AM 30.9 °F 27.5 °F 23.0 °F 72% 30.51 in 10.0 mi SE 3.5 mph - N/A   Clear
4:53 AM 30.0 °F 26.5 °F 21.0 °F 69% 30.51 in 10.0 mi East 3.5 mph - N/A   Clear
5:53 AM 28.9 °F 23.9 °F 21.0 °F 72% 30.51 in 10.0 mi SE 4.6 mph - N/A   Clear
6:53 AM 30.0 °F 26.5 °F 21.0 °F 69% 30.53 in 10.0 mi ESE 3.5 mph - N/A   Clear
7:53 AM 28.9 °F 25.2 °F 23.0 °F 78% 30.53 in 10.0 mi ESE 3.5 mph - N/A   Clear
8:53 AM 34.0 °F 31.0 °F 26.1 °F 73% 30.53 in 10.0 mi SE 3.5 mph - N/A   Clear
9:53 AM 36.0 °F - 27.0 °F 70% 30.54 in 10.0 mi Calm Calm - N/A   Clear
10:53 AM 39.0 °F 36.8 °F 25.0 °F 57% 30.52 in 10.0 mi ESE 3.5 mph - N/A   Clear
11:53 AM 41.0 °F 35.8 °F 25.0 °F 53% 30.47 in 10.0 mi SSE 8.1 mph - N/A   Clear
12:53 PM 41.0 °F 35.8 °F 24.1 °F 51% 30.46 in 10.0 mi SE 8.1 mph - N/A   Clear
1:53 PM 42.1 °F - 24.1 °F 49% 30.44 in 10.0 mi Calm Calm - N/A   Clear
2:53 PM 42.1 °F - 25.0 °F 51% 30.42 in 10.0 mi Calm Calm - N/A   Clear
3:53 PM 42.1 °F 37.7 °F 27.0 °F 55% 30.42 in 10.0 mi NE 6.9 mph - N/A   Clear
4:53 PM 37.9 °F 35.5 °F 30.0 °F 73% 30.40 in 10.0 mi ENE 3.5 mph - N/A   Clear
5:53 PM 36.0 °F - 26.1 °F 67% 30.41 in 10.0 mi Calm Calm - N/A   Clear
6:53 PM 34.0 °F - 27.0 °F 75% 30.41 in 10.0 mi Calm Calm - N/A   Clear
7:53 PM 33.1 °F - 27.0 °F 78% 30.41 in 10.0 mi Calm Calm - N/A   Clear
8:53 PM 30.9 °F - 28.9 °F 92% 30.41 in 10.0 mi Calm Calm - N/A   Clear
9:53 PM 30.0 °F - 28.0 °F 92% 30.41 in 10.0 mi Calm Calm - N/A   Clear
10:53 PM 32.0 °F - 26.1 °F 79% 30.39 in 10.0 mi Calm Calm - N/A   Clear
11:53 PM 30.0 °F - 26.1 °F 85% 30.39 in 10.0 mi Calm Calm - N/A   Clear